Terminal Aerodrome Forecast
Issued by NWS

Home | Current Version | Previous Version | Text Only | Print | Product List | Glossary On
Versions: 1 2 3 4 5 6 7 8 9 10 11 12 13 14 15
000
FTUS41 KLWX 270019 AAA
TAFMTN
TAF AMD
KMTN 270019Z 2700/2724 24008KT P6SM OVC050
      TEMPO 2700/2701 29013G26KT 3SM -SHRA BKN030
     FM270100 29013KT 3SM -SHRA OVC030
     FM270500 34012G20KT 5SM -RA OVC015
     FM271200 35009KT 3SM -RA OVC015
     FM271600 34010G18KT P6SM BKN025
     FM271800 34011G20KT P6SM BKN050
     FM272200 33007KT P6SM BKN050
      AMD NOT SKED 2702/2712=

USA.gov is the U.S. government's official web portal to all federal, state and local government web resources and services.